Orbital Elements at Epoch 2459200.5 (2020-Dec-17.0) TDB
Reference: JPL 15 (heliocentric ecliptic J2000)
Element | Value | Uncertainty (1-sigma) | Units |
e | .1108374835480786 | 5.7301e-08 | |
a | 3.153402334453972 | 3.2659e-08 | au |
q | 2.803887155088457 | 1.8158e-07 | au |
i | 6.597378801202367 | 6.4854e-06 | deg |
node | 58.67816429490684 | 4.6844e-05 | deg |
peri | 178.0321494425919 | 5.4099e-05 | deg |
M | 33.55740666006787 | 2.4752e-05 | deg |
tp | 2459009.842719443114 (2020-Jun-09.34271944) | 0.000141 | TDB |
period | 2045.349382798226 5.60 | 3.1775e-05 8.7e-08 | d yr |
n | .1760090491275808 | 2.7343e-09 | deg/d |
Q | 3.502917513819487 | 3.6279e-08 | au |
|
| | Orbit Determination Parameters
Additional Information
|